« Back
NWS Peachtree City, Ga » Text Product » GA Regional Weather Roundup


Printer-friendly Version
Current Version              Previous Versions:   1  2  3  4  5  6  7  8  9  

Regional Weather Roundup

319
ASUS42 KFFC 181803
RWRGA
WEATHER ROUNDUP FOR GEORGIA
NATIONAL WEATHER SERVICE PEACHTREE CITY GA
100 PM EST THU DEC 18 2014

NOTE: "FAIR" INDICATES FEW OR NO CLOUDS BELOW 12,000 FEET WITH NO
SIGNIFICANT WEATHER AND/OR OBSTRUCTIONS TO VISIBILITY.

* = USE WITH CAUTION. THE STATIONS MARKED WITH AN ASTERISK MAY NOT
REPORT WEATHER SUCH AS PRECIPITATION, FOG, OR THUNDER AND ARE NOT
QUALITY CONTROLLED BY NWS.

THE REMARK "TC" DENOTES TEMPERATURE READING IN DEGREES CELSIUS.

GAZ001>058-181900-
NORTH GEORGIA

CITY           SKY/WX    TMP DP  RH WIND       PRES   REMARKS
ATLANTA        PTSUNNY   49  32  52 NW3       30.14F
6HR MIN TEMP:  36; 6HR MAX TEMP:  49;

ATHENS         CLOUDY    54  30  40 CALM      30.12F
6HR MIN TEMP:  36; 6HR MAX TEMP:  54;

CHAMBLEE       CLOUDY    49  29  46 CALM      30.14F
6HR MIN TEMP:  34; 6HR MAX TEMP:  50; 6HR PCP: TRACE;

PEACHTREE CITY CLOUDY    51  30  44 NW3       30.14F
6HR MIN TEMP:  34; 6HR MAX TEMP:  51;

ROME           CLOUDY    46  32  58 NW3       30.16F
6HR MIN TEMP:  37; 6HR MAX TEMP:  46;

WEST ATLANTA   PTSUNNY   48  32  53 CALM      30.14F
6HR MIN TEMP:  35; 6HR MAX TEMP:  48;

GAINESVILLE    CLOUDY    53  26  35 CALM      30.13F
6HR MIN TEMP:  37; 6HR MAX TEMP:  53;

CARTERSVILLE   CLOUDY    44  33  65 CALM      30.17F
6HR MIN TEMP:  32; 6HR MAX TEMP:  44;



CITY           SKY/WX    TMP DP  RH WIND       PRES   REMARKS
DALTON*        CLOUDY    43  34  70 CALM      30.18F
LAWRENCEVILLE* PTSUNNY   54  27  35 CALM      30.14F
MARIETTA       PTSUNNY   47  31  53 NW3       30.14F
KENNESAW*      PTSUNNY   45  30  57 NW7       30.16F
$$

GAZ059>098-102>109-181900-
CENTRAL GEORGIA

CITY           SKY/WX    TMP DP  RH WIND       PRES   REMARKS
AUGUSTA-BUSH   MOSUNNY   58  39  49 VRB3      30.12F
6HR MIN TEMP:  32; 6HR MAX TEMP:  58;

AUGUSTA-DANIEL MOSUNNY   58  40  51 E3        30.12F
6HR MIN TEMP:  38; 6HR MAX TEMP:  58;

COLUMBUS       PTSUNNY   58  31  35 W6        30.14F
6HR MIN TEMP:  39; 6HR MAX TEMP:  58;

MACON          SUNNY     57  31  37 CALM      30.13F
6HR MIN TEMP:  34; 6HR MAX TEMP:  57;

ROBINS AFB     SUNNY     58  32  37 VRB2      30.13F


CITY           SKY/WX    TMP DP  RH WIND       PRES   REMARKS
LAGRANGE*      CLOUDY    54  35  48 CALM      30.14F
SYLVANIA*      SUNNY     59  44  57 CALM      30.12F
MILLEDGEVILLE* SUNNY     55  43  62 CALM      30.12F
$$

GAZ099>101-110>166-181900-
SOUTH GEORGIA

CITY           SKY/WX    TMP DP  RH WIND       PRES   REMARKS
SAVANNAH       MOSUNNY   60  38  43 NW3       30.11F
6HR MIN TEMP:  42; 6HR MAX TEMP:  88;

VALDOSTA       CLOUDY    58  39  49 NW3       30.15F
6HR MIN TEMP:  38; 6HR MAX TEMP:  58;

ALMA           SUNNY     60  35  39 CALM      30.13F
6HR MIN TEMP:  41; 6HR MAX TEMP:  60;

ST SIMONS      PTSUNNY   57  41  55 SW7       30.13F
6HR MIN TEMP:  42; 6HR MAX TEMP:  57;

FT STEWART     MOSUNNY   58  37  45 VRB3      30.10F
ALBANY         SUNNY     61  33  35 CALM      30.16F
HUNTER AFB     MOSUNNY   58  40  51 SW5       30.10F
MOODY AFB      CLOUDY    58  39  49 VRB3      30.14F
BRUNSWICK      PTSUNNY   59  37  44 W7        30.15F


CITY           SKY/WX    TMP DP  RH WIND       PRES   REMARKS
BAINBRIDGE*    MOSUNNY   61  41  48 CALM      30.17F
MOULTRIE*      SUNNY     55  45  67 SW3       30.16F
VIDALIA*       SUNNY     59  41  51 NW3       30.13F
WAYCROSS*      SUNNY     62  41  46 SW5       30.14F
DOUGLAS*       SUNNY     61  36  39 W3        30.15F
$$



USA.gov is the U.S. government's official web portal to all federal, state and local government web resources and services.